Location: Unspecified
(43.4680°N, 87.1740°E)
Time: 04:55:10
(UTC+00:00)

Resurs 01 Rocket - Pass Details

Date: 17 April 2021
Orbit: 634 x 644 km, 97.9° (Epoch: 16 May)

Event Time Altitude Azimuth Distance (km) Brightness Sun altitude
Exits shadow 15:34:17 23° 228° (SW) 1,359 3.3 -25.2°
Maximum altitude 15:35:55 30° 264° (W) 1,167 3.2 -25.4°
Drops below altitude 10° 15:39:50 10° 326° (NW) 2,050 5.2 -25.9°
Sets 15:42:18 0° 337° (NNW) 2,965 6.2 -26.1°
